sat.trackr.live / text

‹ back to catalog

STARLINK-35176

NORAD 65662 · 2025-211L

PAYLOAD ACTIVE UNKNOWN

§ Identity

Operator
Country
US
Launch date
2025-09-19
Launch site
AFWTR
Launch vehicle
Mass (kg)
RCS (m²)

Purposes: comms

External: N2YO · Heavens-Above · Gunter

§ Orbital elements

Epoch: 2026-09-20T14:27:55.914336Z

Period
93.90 min
Inclination
97.2835°
Eccentricity
0.0000947
Mean motion
15.33476653 rev/d
Perigee alt
464.8 km
Apogee alt
466.1 km
Semi-major
6,843.6 km
B*
5.0821e-4
RAAN
303.8998°
Arg perigee
207.1288°
Mean anomaly
152.9905°
Rev number
5,654

§ Raw data

STARLINK-351761 65662U 25211L   26263.60273049  .00016384  00000+0  50821-3 0  99962 65662  97.2835 303.8998 0000947 207.1288 152.9905 15.33476653 56543

JSON: /api/v1/satellites/65662 · /tle

For live sub-satellite position, see the globe view (requires WebGL).

§ Visibility from observer

Set your observer location to see the next 7 days of passes ≥ 10°. The values pass through the URL so the page stays shareable.

No JS? Fill the form by hand. The geolocation button needs JavaScript.